| time (UTC) | temp F | wind direction | speed knots | gust knots | rain 1hr in | rain 24hr in | rain mn in | humidity % | barometer mb |
| 20260902122747 | 50 | 18 | 0.0 | 0.0 | 0.00 | 0.00 | 0.00 | 80 | 1004.6 |
| 20260902121731 | 50 | 22 | 0.0 | 0.0 | 0.00 | 0.00 | 0.00 | 80 | 1004.5 |
| 20260902120755 | 50 | 20 | 0.0 | 0.0 | 0.00 | 0.00 | 0.00 | 81 | 1004.7 |
| 20260902115814 | 50 | 20 | 0.0 | 2.6 | 0.00 | 0.00 | 0.00 | 81 | 1005.0 |
| 20260902114813 | 50 | 21 | 0.0 | 0.0 | 0.00 | 0.00 | 0.00 | 81 | 1004.9 |
| 20260902113755 | 50 | 18 | 0.0 | 1.7 | 0.00 | 0.00 | 0.00 | 80 | 1005.1 |
| 20260902112728 | 50 | 22 | 0.0 | 0.0 | 0.00 | 0.00 | 0.00 | 80 | 1005.1 |
| 20260902111733 | 51 | 15 | 0.0 | 0.0 | 0.00 | 0.00 | 0.00 | 79 | 1005.2 |
| 20260902110739 | 51 | 18 | 0.0 | 0.0 | 0.00 | 0.00 | 0.00 | 79 | 1005.3 |
| 20260902105734 | 51 | 11 | 0.0 | 0.0 | 0.00 | 0.00 | 0.00 | 78 | 1005.4 |
| 20260902104738 | 51 | 5 | 0.0 | 1.7 | 0.00 | 0.00 | 0.00 | 77 | 1005.4 |
| 20260902101438 | 52 | 6 | 0.0 | 0.0 | 0.00 | 0.00 | 0.00 | 78 | 1005.2 |
| 20260902100447 | 52 | 4 | 0.0 | 0.0 | 0.00 | 0.00 | 0.00 | 78 | 1005.3 |
| 20260902093246 | 53 | 0 | 0.0 | 0.0 | 0.00 | 0.00 | 0.00 | 75 | 1004.9 |
| 20260902092241 | 53 | 356 | 0.0 | 0.0 | 0.00 | 0.00 | 0.00 | 75 | 1004.8 |
| 20260902085048 | 55 | 353 | 0.0 | 1.7 | 0.00 | 0.00 | 0.00 | 72 | 1004.6 |
| 20260902084052 | 55 | 355 | 0.0 | 1.7 | 0.00 | 0.00 | 0.00 | 71 | 1004.7 |
| 20260902083112 | 55 | 353 | 0.0 | 0.0 | 0.00 | 0.00 | 0.00 | 72 | 1004.6 |
| 20260902082103 | 56 | 354 | 0.0 | 0.0 | 0.00 | 0.00 | 0.00 | 71 | 1004.5 |
| 20260902081123 | 56 | 351 | 0.0 | 0.0 | 0.00 | 0.00 | 0.00 | 71 | 1004.6 |
| 20260902075033 | 57 | 351 | 0.0 | 0.0 | 0.00 | 0.00 | 0.00 | 69 | 1004.8 |
| 20260902074033 | 57 | 351 | 0.0 | 0.0 | 0.00 | 0.00 | 0.00 | 69 | 1004.9 |
| 20260902073031 | 58 | 352 | 0.0 | 0.0 | 0.00 | 0.00 | 0.00 | 68 | 1004.9 |
| 20260902070912 | 59 | 346 | 0.0 | 0.0 | 0.00 | 0.00 | 0.00 | 65 | 1004.8 |
| 20260902065931 | 60 | 345 | 0.0 | 0.0 | 0.00 | 0.00 | 0.00 | 64 | 1004.8 |
| 20260902064914 | 60 | 344 | 0.0 | 0.0 | 0.00 | 0.00 | 0.00 | 64 | 1004.7 |
| 20260902063840 | 61 | 342 | 0.0 | 0.0 | 0.00 | 0.00 | 0.00 | 62 | 1004.7 |
| 20260902062841 | 62 | 341 | 0.0 | 0.0 | 0.00 | 0.00 | 0.00 | 61 | 1004.7 |
| 20260902061829 | 62 | 340 | 0.0 | 0.0 | 0.00 | 0.00 | 0.00 | 59 | 1004.9 |
| 20260902060842 | 63 | 340 | 0.0 | 0.0 | 0.00 | 0.00 | 0.00 | 57 | 1005.0 |
| 20260902055855 | 64 | 340 | 0.0 | 0.0 | 0.00 | 0.00 | 0.00 | 57 | 1005.1 |
| 20260902053750 | 65 | 340 | 0.0 | 0.0 | 0.00 | 0.00 | 0.00 | 54 | 1005.2 |
| 20260902052737 | 66 | 339 | 0.0 | 0.0 | 0.00 | 0.00 | 0.00 | 52 | 1005.2 |
| 20260902051750 | 67 | 339 | 0.0 | 0.0 | 0.00 | 0.00 | 0.00 | 49 | 1005.2 |
| 20260902050806 | 68 | 340 | 0.0 | 0.0 | 0.00 | 0.00 | 0.00 | 48 | 1005.3 |
| 20260902045757 | 68 | 339 | 0.0 | 1.7 | 0.00 | 0.00 | 0.00 | 45 | 1005.4 |
| 20260902044807 | 68 | 340 | 0.9 | 3.5 | 0.00 | 0.00 | 0.00 | 45 | 1005.4 |
| 20260902043754 | 68 | 339 | 0.9 | 3.5 | 0.00 | 0.00 | 0.00 | 45 | 1005.6 |
| 20260902042802 | 69 | 339 | 0.9 | 6.1 | 0.00 | 0.00 | 0.00 | 45 | 1005.6 |
| 20260902041759 | 68 | 340 | 0.9 | 6.1 | 0.00 | 0.00 | 0.00 | 45 | 1005.6 |
| 20260902040739 | 68 | 339 | 0.0 | 0.0 | 0.00 | 0.00 | 0.00 | 46 | 1005.7 |
| 20260902035755 | 68 | 339 | 0.0 | 2.6 | 0.00 | 0.00 | 0.00 | 46 | 1005.6 |
| 20260902034728 | 69 | 339 | 0.0 | 3.5 | 0.00 | 0.00 | 0.00 | 45 | 1005.6 |
| 20260902033727 | 69 | 339 | 0.9 | 3.5 | 0.00 | 0.00 | 0.00 | 45 | 1005.5 |
| 20260902032656 | 69 | 339 | 0.0 | 0.0 | 0.00 | 0.00 | 0.00 | 46 | 1005.6 |
| 20260902031644 | 69 | 339 | 0.0 | 3.5 | 0.00 | 0.00 | 0.00 | 44 | 1005.5 |
| 20260902030646 | 70 | 338 | 0.0 | 3.5 | 0.00 | 0.00 | 0.00 | 45 | 1005.5 |
| 20260902025628 | 70 | 338 | 0.0 | 2.6 | 0.00 | 0.00 | 0.00 | 44 | 1005.4 |
| 20260902022424 | 71 | 338 | 0.0 | 3.5 | 0.00 | 0.00 | 0.00 | 43 | 1005.3 |
| 20260902021443 | 72 | 338 | 0.0 | 3.5 | 0.00 | 0.00 | 0.00 | 41 | 1005.2 |
| 20260902020428 | 72 | 338 | 0.0 | 0.0 | 0.00 | 0.00 | 0.00 | 39 | 1005.1 |
| 20260902015443 | 73 | 338 | 0.0 | 0.0 | 0.00 | 0.00 | 0.00 | 38 | 1005.0 |
| 20260902014423 | 73 | 338 | 0.0 | 0.0 | 0.00 | 0.00 | 0.00 | 37 | 1005.0 |
| 20260902013358 | 74 | 338 | 0.0 | 1.7 | 0.00 | 0.00 | 0.00 | 37 | 1005.0 |
| 20260902012340 | 74 | 338 | 0.0 | 1.7 | 0.00 | 0.00 | 0.00 | 37 | 1005.1 |
| 20260902011308 | 75 | 338 | 0.9 | 1.7 | 0.00 | 0.00 | 0.00 | 36 | 1005.1 |
| 20260902010244 | 76 | 338 | 0.0 | 1.7 | 0.00 | 0.00 | 0.00 | 35 | 1005.1 |
| 20260902005305 | 77 | 340 | 0.0 | 1.7 | 0.00 | 0.00 | 0.00 | 34 | 1005.0 |
| 20260902004242 | 77 | 342 | 0.0 | 0.0 | 0.00 | 0.00 | 0.00 | 33 | 1005.0 |
| 20260902003218 | 77 | 341 | 0.0 | 0.0 | 0.00 | 0.00 | 0.00 | 34 | 1005.0 |
| 20260902002229 | 77 | 340 | 0.0 | 0.0 | 0.00 | 0.00 | 0.00 | 34 | 1005.1 |
| 20260902001212 | 76 | 340 | 0.0 | 0.0 | 0.00 | 0.00 | 0.00 | 35 | 1005.0 |
| 20260902000204 | 76 | 341 | 0.0 | 0.0 | 0.00 | 0.00 | 0.00 | 34 | 1004.9 |
| 20260901235222 | 76 | 342 | 0.0 | 0.0 | 0.00 | 0.00 | 0.00 | 35 | 1005.0 |
| 20260901234210 | 76 | 342 | 0.0 | 0.0 | 0.00 | 0.00 | 0.00 | 36 | 1005.1 |
| 20260901232051 | 77 | 355 | 0.0 | 2.6 | 0.00 | 0.00 | 0.00 | 37 | 1005.3 |
| 20260901231029 | 77 | 344 | 0.0 | 1.7 | 0.00 | 0.00 | 0.00 | 38 | 1005.4 |
| 20260901230010 | 76 | 340 | 0.0 | 0.9 | 0.00 | 0.00 | 0.00 | 41 | 1005.4 |
| 20260901223748 | 76 | 337 | 0.0 | 0.0 | 0.00 | 0.00 | 0.00 | 38 | 1005.9 |
| 20260901222747 | 77 | 338 | 0.0 | 0.0 | 0.00 | 0.00 | 0.00 | 36 | 1006.1 |
| 20260901221748 | 77 | 338 | 0.0 | 3.5 | 0.00 | 0.00 | 0.00 | 31 | 1006.2 |
| 20260901220727 | 77 | 338 | 0.0 | 1.7 | 0.00 | 0.00 | 0.00 | 37 | 1006.3 |
| 20260901215717 | 77 | 339 | 0.0 | 1.7 | 0.00 | 0.00 | 0.00 | 31 | 1006.4 |
| 20260901214645 | 77 | 340 | 0.0 | 1.7 | 0.00 | 0.00 | 0.00 | 35 | 1006.4 |
| 20260901212500 | 80 | 30 | 0.0 | 0.9 | 0.00 | 0.00 | 0.00 | 33 | 1006.5 |
| 20260901211443 | 80 | 56 | 0.0 | 1.7 | 0.00 | 0.00 | 0.00 | 33 | 1006.5 |
| 20260901210501 | 80 | 59 | 0.0 | 2.6 | 0.00 | 0.00 | 0.00 | 32 | 1006.5 |
| 20260901205515 | 81 | 190 | 0.0 | 5.2 | 0.00 | 0.00 | 0.00 | 29 | 1006.5 |
| 20260901204533 | 81 | 191 | 0.0 | 1.7 | 0.00 | 0.00 | 0.00 | 27 | 1006.4 |
| 20260901203547 | 82 | 194 | 0.0 | 1.7 | 0.00 | 0.00 | 0.00 | 29 | 1006.5 |
| 20260901202533 | 81 | 194 | 0.0 | 3.5 | 0.00 | 0.00 | 0.00 | 29 | 1006.7 |
| 20260901201527 | 81 | 193 | 0.9 | 4.3 | 0.00 | 0.00 | 0.00 | 26 | 1006.8 |
| 20260901200455 | 81 | 194 | 0.9 | 4.3 | 0.00 | 0.00 | 0.00 | 26 | 1006.9 |
| 20260901195446 | 81 | 194 | 0.9 | 5.2 | 0.00 | 0.00 | 0.00 | 30 | 1006.9 |
| 20260901194452 | 80 | 194 | 0.0 | 5.2 | 0.00 | 0.00 | 0.00 | 30 | 1007.1 |
| 20260901193458 | 80 | 194 | 0.9 | 3.5 | 0.00 | 0.00 | 0.00 | 30 | 1007.3 |
| 20260901192514 | 80 | 194 | 0.0 | 4.3 | 0.00 | 0.00 | 0.00 | 27 | 1007.6 |
| 20260901191448 | 79 | 193 | 0.0 | 4.3 | 0.00 | 0.00 | 0.00 | 28 | 1007.7 |
| 20260901190432 | 79 | 190 | 0.9 | 6.1 | 0.00 | 0.00 | 0.00 | 26 | 1007.8 |
| 20260901185436 | 79 | 191 | 0.9 | 6.1 | 0.00 | 0.00 | 0.00 | 27 | 1007.8 |
| 20260901183322 | 78 | 193 | 0.0 | 0.9 | 0.00 | 0.00 | 0.00 | 30 | 1008.1 |
| 20260901181145 | 76 | 193 | 0.0 | 0.9 | 0.00 | 0.00 | 0.00 | 33 | 1008.5 |
| 20260901180156 | 75 | 323 | 0.0 | 1.7 | 0.00 | 0.00 | 0.00 | 34 | 1008.6 |
| 20260901175143 | 74 | 0 | 0.0 | 0.9 | 0.00 | 0.00 | 0.00 | 40 | 1008.8 |
| 20260901174149 | 74 | 355 | 0.0 | 7.0 | 0.00 | 0.00 | 0.00 | 38 | 1008.8 |
| 20260901173152 | 73 | 33 | 0.9 | 7.0 | 0.00 | 0.00 | 0.00 | 35 | 1009.0 |
| 20260901172129 | 71 | 345 | 0.0 | 0.0 | 0.00 | 0.00 | 0.00 | 41 | 1009.0 |
| 20260901171133 | 70 | 340 | 0.0 | 0.0 | 0.00 | 0.00 | 0.00 | 42 | 1009.1 |
| 20260901165027 | 67 | 337 | 0.0 | 2.6 | 0.00 | 0.00 | 0.00 | 44 | 1009.2 |
| 20260901164036 | 66 | 336 | 0.0 | 5.2 | 0.00 | 0.00 | 0.00 | 47 | 1009.4 |
| 20260901163015 | 66 | 336 | 0.0 | 5.2 | 0.00 | 0.00 | 0.00 | 49 | 1009.4 |
| 20260901162004 | 65 | 336 | 0.0 | 1.7 | 0.00 | 0.00 | 0.00 | 51 | 1009.5 |
| 20260901161016 | 65 | 336 | 0.0 | 0.0 | 0.00 | 0.00 | 0.00 | 57 | 1009.5 |
| 20260901160016 | 65 | 336 | 0.0 | 0.0 | 0.00 | 0.00 | 0.00 | 54 | 1009.6 |
| 20260901155040 | 66 | 336 | 0.0 | 2.6 | 0.00 | 0.00 | 0.00 | 55 | 1009.6 |
| 20260901154051 | 66 | 337 | 0.9 | 2.6 | 0.00 | 0.00 | 0.00 | 50 | 1009.7 |
| 20260901153019 | 65 | 337 | 1.7 | 3.5 | 0.00 | 0.00 | 0.00 | 52 | 1009.7 |
| 20260901152020 | 63 | 336 | 0.9 | 3.5 | 0.00 | 0.00 | 0.00 | 51 | 1009.7 |
| 20260901151040 | 62 | 336 | 1.7 | 3.5 | 0.00 | 0.00 | 0.00 | 52 | 1009.9 |
| 20260901150014 | 60 | 192 | 1.7 | 2.6 | 0.00 | 0.00 | 0.00 | 56 | 1010.0 |
| 20260901145007 | 59 | 192 | 0.9 | 2.6 | 0.00 | 0.00 | 0.00 | 57 | 1010.0 |
| 20260901143949 | 58 | 193 | 0.9 | 2.6 | 0.00 | 0.00 | 0.00 | 60 | 1010.2 |
| 20260901142916 | 57 | 193 | 0.9 | 2.6 | 0.00 | 0.00 | 0.00 | 61 | 1010.3 |
| 20260901140838 | 54 | 193 | 1.7 | 3.5 | 0.00 | 0.00 | 0.00 | 65 | 1010.2 |
| 20260901135857 | 53 | 193 | 0.9 | 3.5 | 0.00 | 0.00 | 0.00 | 66 | 1010.3 |
| 20260901134904 | 52 | 193 | 0.9 | 3.5 | 0.00 | 0.00 | 0.00 | 68 | 1010.4 |
| 20260901133842 | 51 | 193 | 0.0 | 2.6 | 0.00 | 0.00 | 0.00 | 70 | 1010.4 |
| 20260901132853 | 50 | 193 | 0.0 | 2.6 | 0.00 | 0.00 | 0.00 | 70 | 1010.4 |
| 20260901124514 | 49 | 193 | 0.0 | 0.0 | 0.00 | 0.00 | 0.00 | 73 | 1010.3 |
| 20260901123502 | 49 | 193 | 0.0 | 0.0 | 0.00 | 0.00 | 0.00 | 75 | 1010.3 |